Location: Joplin, MO
(37.0842°N, 94.5133°W)
Time: 16:43:02
(UTC+02:00)

Transit 2A - All Passes

Search period start: 30 March 2023 00:00
Search period end: 09 April 2023 00:00
Orbit: 591 x 964 km, 66.7° (Epoch: 29 March)

Date Brightness Start Highest point End Pass type
(mag) Time Alt. Az. Time Alt. Az. Time Alt. Az.
30 Mar - 10:33:55 10° SE 10:37:24 18° ESE 10:41:06 10° ENE visible
30 Mar - 12:14:40 10° SW 12:19:55 57° WNW 12:25:47 10° NNE visible
30 Mar - 14:03:14 10° NW 14:04:35 11° NW 14:05:56 10° NNW daylight
30 Mar - 19:21:40 10° N 19:25:20 16° NE 19:28:57 10° ENE daylight
30 Mar - 21:03:12 10° NNW 21:09:37 78° ENE 21:15:44 10° SSE daylight
30 Mar - 22:48:30 10° WNW 22:52:03 16° WSW 22:55:29 10° SW daylight
31 Mar - 10:01:37 10° ESE 10:03:07 11° E 10:04:39 10° E visible
31 Mar - 11:39:57 10° SSW 11:45:15 84° WNW 11:51:13 10° NNE visible
31 Mar - 13:26:21 10° WNW 13:29:29 15° NW 13:32:46 10° N visible
31 Mar - 18:48:16 10° NNE 18:50:15 11° NE 18:52:13 10° ENE daylight
31 Mar - 20:28:40 10° NNW 20:34:56 55° ENE 20:40:56 10° SE daylight
31 Mar - 22:12:51 10° NW 22:17:42 24° WSW 22:22:22 10° SSW daylight
01 Apr - 11:05:26 10° SSW 11:10:40 66° ESE 11:16:31 10° NNE visible
01 Apr - 12:50:25 10° W 12:54:29 20° NW 12:58:50 10° N visible
01 Apr - 19:54:12 10° NNW 20:00:10 39° NE 20:05:54 10° ESE daylight
01 Apr - 21:37:40 10° NW 21:43:17 34° WSW 21:48:41 10° S daylight
02 Apr - 10:31:11 10° S 10:36:10 43° ESE 10:41:41 10° NE visible
02 Apr - 12:14:53 10° WSW 12:19:34 28° NW 12:24:39 10° N visible
02 Apr - 19:19:52 10° N 19:25:20 29° NE 19:30:36 10° ESE daylight
02 Apr - 21:02:43 10° NW 21:08:49 50° WSW 21:14:38 10° S daylight
03 Apr - 09:57:14 10° SSE 10:01:44 29° ESE 10:06:39 10° NE visible
03 Apr - 11:39:38 10° WSW 11:44:43 39° NW 11:50:18 10° NNE visible
03 Apr - 18:45:39 10° N 18:50:24 21° NE 18:55:03 10° E daylight
03 Apr - 20:27:56 10° NNW 20:34:17 73° WSW 20:40:18 10° SSE daylight
04 Apr - 09:23:43 10° SSE 09:27:23 19° ESE 09:31:18 10° ENE visible
04 Apr - 11:04:38 10° SW 11:09:57 56° WNW 11:15:50 10° NNE visible
04 Apr - 12:53:23 10° NW 12:54:38 11° NW 12:55:54 10° NNW visible
04 Apr - 18:11:39 10° N 18:15:24 16° NE 18:19:06 10° E daylight
04 Apr - 19:53:15 10° NNW 19:59:40 80° ENE 20:05:45 10° SSE daylight
04 Apr - 21:38:43 10° WNW 21:42:03 15° WSW 21:45:17 10° SW daylight
05 Apr - 08:51:08 10° ESE 08:53:05 12° E 08:55:05 10° E visible
05 Apr - 10:29:53 10° SSW 10:35:15 82° WNW 10:41:16 10° NNE visible
05 Apr - 12:16:25 10° WNW 12:19:32 15° NW 12:22:48 10° N visible
05 Apr - 17:38:09 10° NNE 17:40:19 12° NE 17:42:28 10° ENE daylight
05 Apr - 19:18:42 10° NNW 19:24:59 57° ENE 19:30:57 10° SE daylight
05 Apr - 21:02:59 10° NW 21:07:42 23° WSW 21:12:15 10° SSW daylight
06 Apr - 09:55:21 10° SSW 10:00:40 68° ESE 10:06:35 10° NNE visible
06 Apr - 11:40:26 10° W 11:44:31 20° NW 11:48:52 10° N visible
06 Apr - 18:44:13 10° NNW 18:50:13 40° NE 18:55:56 10° SE daylight
06 Apr - 20:27:45 10° NW 20:33:18 33° WSW 20:38:35 10° S daylight
07 Apr - 09:21:04 10° S 09:26:09 45° ESE 09:31:46 10° NE visible
07 Apr - 11:04:52 10° WSW 11:09:35 27° NW 11:14:40 10° N visible
07 Apr - 18:09:52 10° N 18:15:22 29° NE 18:20:39 10° ESE daylight
07 Apr - 19:52:46 10° NW 19:58:50 48° WSW 20:04:34 10° S daylight
08 Apr - 08:47:04 10° SSE 08:51:42 30° ESE 08:56:44 10° NE visible
08 Apr - 10:29:36 10° WSW 10:34:43 38° NW 10:40:20 10° NNE visible
08 Apr - 17:35:38 10° N 17:40:26 22° NE 17:45:07 10° E daylight
08 Apr - 19:17:58 10° NNW 19:24:18 71° WSW 19:30:15 10° SSE daylight
